This is the latest recevied weather packets stored in our database for station/object KF4WSW-13. If no packets are shown the sender has not sent any weather packets the latest 10 day(s).
| Time | Temp. | Humidity | Pressure | Rain* | Wind** | Luminosity | Snow |
|---|---|---|---|---|---|---|---|
| 1777830086 | 24.44° C | 59% | 1015.9 hPa | 0 mm | - | 804 W/m² | - |
| 1777829780 | 23.89° C | 59% | 1016 hPa | 0 mm | - | 881 W/m² | - |
| 1777829477 | 23.89° C | 62% | 1016.1 hPa | 0 mm | - | 287 W/m² | - |
| 1777829174 | 23.89° C | 59% | 1016.3 hPa | 0 mm | - | 1001 W/m² | - |
| 1777828872 | 23.89° C | 65% | 1016.3 hPa | 0 mm | - | 947 W/m² | - |
| 1777828568 | 24.44° C | 59% | 1016 hPa | 0 mm | - | 315 W/m² | - |
| 1777828266 | 23.89° C | 64% | 1016.1 hPa | 0 mm | - | 401 W/m² | - |
| 1777827962 | 23.89° C | 60% | 1016.1 hPa | 0 mm | - | 720 W/m² | - |
| 1777827659 | 23.89° C | 62% | 1016.5 hPa | 0 mm | - | 314 W/m² | - |
| 1777827356 | 22.78° C | 62% | 1016.4 hPa | 0 mm | - | 369 W/m² | - |
| 1777827052 | 22.78° C | 63% | 1016.5 hPa | 0 mm | - | 549 W/m² | - |
| 1777826749 | 22.78° C | 62% | 1016.4 hPa | 0 mm | - | 319 W/m² | - |
| 1777826446 | 23.33° C | 62% | 1016.8 hPa | 0 mm | - | 879 W/m² | - |
| 1777826143 | 23.33° C | 63% | 1016.9 hPa | 0 mm | - | 865 W/m² | - |
| 1777825841 | 22.78° C | 65% | 1016.7 hPa | 0 mm | - | 843 W/m² | - |
| 1777825538 | 22.78° C | 65% | 1016.8 hPa | 0 mm | - | 800 W/m² | - |
| 1777825235 | 22.78° C | 62% | 1016.8 hPa | 0 mm | - | 789 W/m² | - |
| 1777824932 | 22.22° C | 66% | 1016.8 hPa | 0 mm | - | 759 W/m² | - |
| 1777824628 | 22.22° C | 65% | 1016.9 hPa | 0 mm | - | 768 W/m² | - |
| 1777824325 | 21.67° C | 68% | 1016.6 hPa | 0 mm | - | 760 W/m² | - |
| 1777824021 | 21.67° C | 66% | 1016.7 hPa | 0 mm | - | 735 W/m² | - |
| 1777823718 | 21.11° C | 68% | 1016.7 hPa | 0 mm | - | 748 W/m² | - |
| 1777823415 | 21.11° C | 69% | 1016.7 hPa | 0 mm | - | 745 W/m² | - |
| 1777823112 | 21.11° C | 70% | 1016.8 hPa | 0 mm | - | 778 W/m² | - |
| 1777822809 | 21.11° C | 69% | 1016.6 hPa | 0 mm | - | 738 W/m² | - |
* Rain latest hour (hover to see other rain measurements)
** Current wind speed in m/s (hover to see current wind gust speed)